Temp
16 16 16 17 18 17 17 16 16 15 14 14 13 13 12 11 14 10 10 10 10 10 9 10 10 10 10 10 10 10 10 10 10 9 9 9 9 9 9 9 9 8 8 8 9 8 8 8 8
16 16 17 17 18 18 17 16 15 14 13 13 13 13 11 11 13 11 11 10 10 10 10 10 10 10 9 10 10 10 10 9 9 9 9 9 9 9 9 9 9 8 8 8 8 8 8 8 8
17 16 17 19 18 18 17 15 14 14 14 13 13 12 11 10 10 11 11 11 11 11 10 10 10 10 9 9 9 9 9 9 9 9 9 9 9 9 9 9 9 8 8 8 8 8 8 8 8
17 16 17 18 18 17 16 15 15 14 14 13 12 11 10 9 9 9 11 11 10 10 10 10 10 10 9 9 9 9 9 9 9 9 9 9 9 9 9 9 8 9 8 8 8 8 8 8 8
17 16 19 18 17 17 16 16 16 15 14 14 12 10 10 9 9 10 11 11 10 10 10 10 10 9 9 9 9 9 9 9 9 9 9 9 9 8 8 8 8 8 8 8 8 8 8 8 8
14 18 19 18 17 17 16 16 16 15 14 13 11 10 10 11 9 10 9 10 9 10 10 10 10 9 9 9 9 9 9 9 9 9 9 9 9 9 8 8 8 8 8 8 8 8 8 8 8
16 18 20 19 18 17 17 17 16 15 13 13 12 14 11 9 8 8 8 9 10 10 10 10 10 10 9 9 9 9 9 9 9 9 9 9 8 8 8 8 8 8 8 8 8 8 8 9 8
18 20 20 18 19 17 17 16 16 15 14 12 13 14 13 12 9 9 9 9 9 11 10 10 10 10 9 9 9 9 9 9 9 9 9 8 8 8 8 8 8 8 8 8 8 9 9 8 8
18 19 20 19 19 18 17 16 15 14 13 13 12 14 14 14 11 8 8 11 11 11 11 11 10 10 10 10 9 9 9 9 9 9 8 8 8 8 8 9 9 9 9 8 8 9 9 9 9
18 20 20 19 19 18 17 17 16 15 13 13 12 13 14 14 14 10 8 9 11 9 10 10 10 10 10 9 9 9 9 9 9 9 9 9 9 9 9 9 8 8 9 8 8 9 9 9 9
19 20 18 18 18 18 17 17 16 16 15 13 15 14 14 14 13 10 8 9 9 10 7 7 10 10 10 8 10 9 10 9 9 9 9 9 8 8 7 9 9 8 8 8 9 9 9 10 9
19 18 18 17 17 18 17 16 15 14 14 13 14 14 14 14 14 12 9 11 12 12 9 10 11 11 10 10 10 9 8 9 8 9 9 9 9 9 9 9 9 9 9 9 8 9 9 9 9
18 18 17 17 17 17 16 15 13 12 15 14 14 14 14 12 12 12 12 12 13 13 12 12 12 11 11 11 11 9 9 9 8 9 9 9 9 9 9 9 9 8 9 9 9 8 9 9 9
18 17 17 17 17 16 16 15 13 11 13 14 14 13 11 10 11 12 12 12 12 12 12 12 11 11 11 10 10 10 10 10 9 8 10 10 9 9 9 9 8 9 9 9 8 8 8 8 8
18 17 17 17 17 17 16 15 13 12 11 11 10 10 10 9 9 12 12 12 12 11 11 11 11 11 10 10 10 10 10 10 11 10 9 10 9 9 9 8 8 8 8 8 8 8 8 8 8
18 18 18 17 17 17 15 14 13 12 12 12 11 11 10 9 9 9 9 10 11 11 11 11 11 11 11 10 10 10 10 10 10 10 10 10 9 9 8 8 8 8 8 8 8 8 8 8 8
18 19 19 18 17 16 16 15 13 14 13 12 12 11 11 10 9 9 8 10 9 11 11 11 11 11 11 10 10 10 10 10 10 9 9 9 9 9 8 8 8 8 8 8 8 8 8 8 8
19 20 20 19 18 17 15 14 14 14 14 13 12 12 11 11 10 9 9 8 8 9 11 11 10 11 10 10 10 9 9 9 9 8 8 9 8 8 8 8 8 8 8 8 8 8 8 8 8
20 20 20 19 18 18 18 16 15 14 14 14 13 12 12 12 11 9 9 9 8 8 11 11 11 10 10 10 10 9 9 9 9 9 8 8 8 8 8 8 8 8 8 8 8 8 8 8 8
19 20 20 19 19 18 18 17 16 15 15 14 14 13 12 12 11 10 12 11 9 11 11 11 11 10 10 10 9 9 9 9 9 9 9 9 9 9 9 9 9 9 9 9 8 8 8 7 7
18 19 20 20 18 18 17 17 16 15 15 14 14 13 13 12 12 11 12 12 10 11 11 11 10 10 10 10 10 10 10 9 9 7 8 9 9 9 9 9 9 9 9 9 9 8 8 8 7
19 19 19 19 19 19 18 20 17 16 15 15 14 14 13 13 12 11 10 12 10 11 11 10 10 10 10 10 10 10 9 9 9 9 9 8 9 9 9 9 9 9 9 8 8 7 7 7 7
19 19 19 19 19 19 18 19 16 15 15 15 15 14 14 13 12 12 11 10 10 11 11 10 10 10 10 10 10 10 10 9 9 10 9 9 9 9 9 9 9 9 8 8 7 7 7 6 7
18 18 18 18 19 19 19 17 20 17 16 16 15 15 14 13 12 12 11 10 10 12 11 10 10 10 10 10 10 10 10 10 9 9 9 9 9 9 9 8 8 8 8 8 7 6 7 6 6
18 18 19 19 20 20 20 20 20 19 18 17 17 15 15 14 13 12 11 10 11 12 12 11 10 10 10 9 10 10 10 10 9 9 9 8 8 8 8 8 8 8 8 7 7 6 6 6 6
18 19 20 19 21 21 19 19 19 18 18 17 17 16 15 14 13 12 11 10 12 12 12 11 10 10 10 9 10 10 10 10 9 9 8 8 7 7 7 7 7 7 7 7 6 6 6 6 6
18 18 19 20 20 20 20 19 18 17 17 16 16 16 15 14 13 12 11 10 10 12 12 11 11 10 10 10 9 9 10 9 9 8 8 7 7 7 7 6 6 6 6 6 5 5 5 5 5
18 18 19 19 19 20 20 20 19 17 17 17 16 15 15 15 13 12 11 10 10 12 12 11 11 10 10 10 9 9 9 9 8 8 7 6 6 6 5 5 6 6 5 6 5 5 5 5 5
18 18 19 19 19 21 21 21 19 17 17 17 16 15 15 15 13 12 11 10 11 12 12 11 11 10 10 10 10 9 9 8 8 7 6 6 6 6 5 5 6 5 5 5 5 5 4 4 4
18 18 18 18 19 19 19 19 18 17 17 16 16 15 14 14 12 11 11 10 10 12 12 12 11 10 10 10 9 9 9 8 7 6 6 6 6 5 5 5 5 5 5 4 5 4 4 4 3
Height
3168 3166 3165 3163 3172 3173 3174 3177 3176 3177 3178 3179 3177 3176 3177 3176 3178 3184 3182 3184 3185 3186 3188 3191 3192 3193 3194 3197 3199 3200 3202 3203 3205 3206 3207 3208 3209 3210 3210 3211 3213 3214 3215 3215 3216 3217 3217 3216 3216
3171 3170 3167 3167 3173 3172 3178 3181 3181 3181 3181 3182 3182 3182 3181 3180 3180 3180 3184 3187 3188 3189 3192 3194 3195 3196 3197 3199 3201 3203 3204 3206 3207 3208 3210 3211 3212 3212 3213 3215 3216 3217 3218 3218 3218 3218 3217 3217 3217
3173 3172 3169 3173 3175 3177 3183 3186 3185 3185 3185 3184 3184 3185 3185 3185 3186 3186 3188 3190 3192 3193 3194 3197 3198 3199 3200 3202 3204 3205 3206 3208 3209 3210 3212 3213 3213 3213 3215 3217 3218 3219 3219 3220 3220 3220 3218 3218 3218
3177 3175 3175 3176 3181 3186 3189 3189 3188 3188 3187 3187 3186 3186 3188 3190 3193 3190 3191 3193 3195 3196 3198 3199 3200 3202 3204 3205 3205 3206 3209 3209 3210 3211 3213 3214 3216 3216 3217 3218 3219 3220 3220 3221 3221 3221 3220 3219 3218
3176 3176 3178 3181 3186 3189 3191 3191 3191 3191 3191 3191 3190 3189 3189 3191 3193 3193 3194 3196 3197 3199 3200 3201 3203 3204 3206 3207 3209 3210 3211 3212 3213 3214 3214 3215 3217 3218 3219 3220 3220 3221 3221 3221 3221 3220 3220 3220 3219
3173 3178 3179 3184 3188 3191 3193 3194 3194 3193 3195 3193 3192 3191 3191 3193 3195 3195 3197 3199 3200 3201 3203 3204 3205 3207 3209 3210 3211 3212 3213 3214 3215 3215 3217 3218 3219 3220 3221 3222 3222 3222 3222 3221 3221 3221 3220 3220 3219
3169 3176 3179 3183 3187 3191 3192 3194 3196 3196 3196 3196 3195 3192 3194 3195 3197 3201 3202 3200 3205 3203 3204 3206 3207 3207 3209 3210 3211 3213 3214 3215 3216 3217 3219 3220 3221 3222 3222 3222 3223 3222 3222 3222 3221 3220 3220 3220 3219
3177 3180 3182 3187 3186 3192 3195 3196 3197 3199 3199 3198 3196 3197 3196 3195 3198 3203 3204 3203 3206 3205 3206 3207 3209 3210 3211 3212 3213 3214 3215 3216 3217 3218 3220 3220 3221 3222 3223 3223 3222 3222 3221 3221 3220 3219 3219 3219 3218
3186 3178 3181 3184 3187 3193 3196 3198 3199 3198 3197 3200 3200 3198 3198 3198 3198 3202 3205 3204 3205 3207 3208 3209 3210 3211 3213 3213 3214 3214 3216 3217 3218 3219 3220 3220 3221 3222 3221 3220 3221 3221 3221 3220 3220 3218 3218 3218 3217
3186 3182 3184 3188 3189 3193 3195 3196 3200 3200 3198 3199 3200 3199 3199 3200 3200 3201 3204 3205 3205 3207 3208 3210 3212 3213 3214 3215 3215 3215 3216 3217 3218 3219 3219 3220 3220 3221 3222 3220 3221 3221 3220 3218 3218 3217 3217 3216 3216
3186 3183 3191 3193 3192 3194 3197 3198 3198 3195 3195 3198 3199 3199 3200 3201 3202 3201 3204 3205 3206 3206 3210 3211 3213 3213 3214 3216 3215 3215 3216 3217 3219 3219 3219 3219 3219 3222 3220 3220 3218 3219 3217 3217 3215 3215 3214 3213 3215
3190 3191 3192 3195 3195 3195 3197 3199 3198 3191 3193 3197 3198 3200 3201 3202 3203 3203 3204 3205 3206 3207 3209 3210 3211 3213 3214 3215 3215 3217 3218 3217 3218 3218 3219 3219 3219 3218 3218 3218 3217 3217 3216 3214 3214 3214 3213 3213 3212
3190 3193 3195 3196 3196 3198 3199 3199 3197 3195 3195 3197 3198 3200 3201 3203 3203 3204 3205 3206 3207 3207 3208 3209 3211 3212 3213 3215 3214 3216 3215 3217 3218 3217 3217 3218 3217 3216 3215 3216 3216 3215 3215 3214 3213 3212 3212 3212 3211
3191 3194 3196 3197 3199 3200 3200 3200 3197 3197 3197 3198 3200 3201 3203 3204 3204 3204 3205 3206 3207 3208 3208 3209 3210 3212 3214 3214 3214 3215 3215 3215 3215 3215 3215 3215 3216 3215 3214 3214 3214 3214 3214 3214 3212 3211 3210 3209 3209
3193 3196 3197 3199 3200 3202 3202 3203 3200 3198 3198 3200 3203 3205 3206 3206 3205 3204 3205 3206 3207 3208 3209 3210 3212 3212 3213 3213 3213 3213 3214 3214 3213 3214 3214 3214 3214 3214 3212 3211 3210 3210 3210 3210 3209 3208 3207 3206 3204
3193 3194 3193 3198 3199 3201 3202 3205 3202 3202 3202 3204 3206 3207 3208 3207 3207 3206 3205 3205 3207 3207 3208 3210 3211 3211 3212 3212 3213 3213 3213 3213 3213 3212 3212 3211 3210 3211 3209 3209 3209 3207 3207 3206 3205 3204 3202 3201 3200
3189 3186 3190 3196 3197 3194 3197 3203 3203 3204 3204 3204 3206 3207 3208 3208 3208 3208 3206 3206 3206 3207 3208 3209 3210 3210 3211 3212 3211 3211 3211 3211 3210 3209 3209 3208 3209 3207 3207 3206 3206 3204 3203 3202 3200 3199 3197 3195 3195
3185 3184 3185 3190 3195 3197 3197 3203 3200 3204 3204 3204 3205 3206 3208 3209 3210 3208 3208 3208 3208 3207 3208 3209 3210 3210 3210 3209 3210 3209 3209 3208 3207 3207 3206 3205 3205 3204 3202 3201 3200 3199 3197 3196 3195 3193 3192 3189 3187
3182 3184 3184 3187 3191 3194 3195 3198 3200 3202 3204 3205 3205 3205 3207 3210 3209 3207 3207 3206 3208 3208 3207 3207 3208 3208 3208 3207 3207 3207 3206 3205 3204 3204 3203 3201 3199 3198 3198 3196 3193 3192 3190 3189 3188 3185 3182 3181 3180
3183 3182 3182 3185 3189 3193 3193 3193 3199 3201 3202 3204 3205 3204 3206 3207 3208 3207 3206 3206 3207 3207 3207 3206 3206 3206 3206 3205 3204 3203 3201 3200 3199 3198 3197 3196 3194 3193 3191 3190 3187 3184 3181 3179 3178 3177 3174 3172 3173
3182 3181 3182 3184 3188 3192 3191 3192 3194 3198 3200 3202 3203 3204 3205 3205 3206 3206 3206 3207 3207 3207 3207 3206 3206 3206 3206 3204 3203 3200 3198 3196 3195 3194 3192 3189 3188 3187 3185 3183 3180 3178 3176 3172 3171 3170 3168 3167 3167
3179 3180 3181 3183 3186 3184 3187 3182 3187 3194 3197 3197 3199 3201 3202 3203 3204 3205 3205 3205 3207 3207 3207 3206 3206 3205 3204 3202 3200 3197 3194 3192 3190 3189 3186 3185 3183 3181 3179 3176 3174 3172 3170 3168 3166 3164 3163 3161 3160
3176 3176 3180 3182 3181 3182 3181 3182 3181 3184 3188 3192 3195 3197 3199 3200 3201 3203 3204 3203 3204 3204 3205 3205 3204 3203 3202 3200 3197 3193 3189 3187 3184 3183 3181 3180 3177 3176 3173 3171 3169 3166 3164 3162 3160 3158 3157 3156 3155
3175 3178 3180 3180 3179 3177 3175 3185 3172 3176 3180 3184 3188 3192 3195 3196 3198 3200 3202 3200 3200 3200 3201 3202 3202 3201 3200 3197 3193 3189 3185 3182 3181 3179 3178 3176 3174 3171 3168 3167 3164 3161 3158 3155 3154 3153 3151 3150 3150
3175 3176 3175 3175 3171 3168 3169 3171 3172 3175 3178 3181 3182 3186 3189 3192 3194 3196 3197 3195 3194 3196 3197 3198 3198 3198 3197 3194 3190 3185 3182 3179 3177 3176 3174 3172 3170 3167 3163 3162 3159 3156 3154 3151 3148 3147 3146 3144 3143
3171 3170 3165 3166 3161 3160 3167 3171 3172 3174 3174 3177 3180 3181 3185 3187 3190 3191 3193 3191 3190 3191 3194 3194 3195 3195 3194 3192 3188 3184 3180 3176 3174 3172 3170 3168 3166 3163 3160 3158 3155 3153 3149 3146 3145 3142 3140 3139 3137
3166 3167 3165 3162 3162 3162 3160 3165 3169 3171 3174 3175 3177 3179 3180 3183 3184 3187 3189 3187 3185 3187 3190 3191 3191 3192 3191 3188 3185 3181 3176 3173 3171 3169 3166 3164 3161 3158 3154 3152 3149 3146 3144 3142 3140 3138 3136 3133 3131
3160 3164 3165 3164 3162 3157 3156 3160 3161 3166 3170 3172 3174 3174 3176 3178 3178 3181 3184 3182 3181 3183 3186 3187 3188 3188 3187 3185 3182 3177 3172 3169 3166 3164 3161 3158 3155 3153 3150 3147 3145 3142 3139 3137 3135 3132 3130 3128 3125
3160 3160 3160 3159 3160 3154 3153 3153 3157 3164 3167 3170 3171 3171 3171 3173 3173 3176 3178 3178 3177 3179 3181 3182 3183 3184 3184 3182 3179 3176 3171 3165 3162 3159 3156 3153 3151 3148 3146 3144 3141 3138 3135 3133 3131 3129 3126 3123 3120
3153 3154 3158 3158 3159 3159 3158 3156 3159 3162 3164 3167 3169 3169 3168 3170 3170 3170 3173 3174 3172 3174 3176 3177 3179 3179 3179 3177 3174 3171 3167 3163 3159 3155 3152 3150 3147 3145 3142 3140 3137 3134 3131 3129 3126 3124 3122 3118 3114
Wind_Speed
16 19 18 24 21 23 24 18 18 14 13 11 9 11 11 14 9 15 23 22 22 23 24 23 25 25 24 22 20 19 17 16 17 17 16 13 12 14 15 13 12 11 10 10 9 7 4 4 5
15 12 13 12 23 27 26 20 19 16 14 14 14 12 16 15 15 27 25 23 24 24 22 22 22 21 20 19 18 17 16 16 17 16 14 11 12 13 12 11 8 7 7 7 6 4 4 4 5
10 13 9 22 25 26 25 19 17 14 12 11 17 14 14 21 19 23 24 23 22 22 21 20 20 19 18 16 16 16 15 14 15 14 11 10 12 12 11 9 7 5 4 4 4 3 4 5 6
13 18 17 26 26 22 18 15 16 18 17 14 16 20 22 18 18 22 23 22 21 20 20 19 19 18 16 15 15 15 14 13 13 12 11 10 10 10 8 6 5 4 3 2 3 4 5 6 6
6 5 20 24 22 19 15 13 13 14 14 15 15 24 19 18 20 20 21 18 18 17 18 17 16 15 14 12 13 13 12 12 11 10 9 9 8 7 5 3 1 1 2 4 4 6 7 8 8
8 9 17 21 19 16 15 13 13 15 14 15 22 21 19 20 19 20 19 18 15 14 15 15 15 13 12 11 11 11 11 10 10 9 8 7 6 4 3 2 3 4 5 7 8 8 8 9 9
9 7 18 16 15 15 10 12 11 14 17 18 14 18 21 20 18 20 14 17 10 16 15 14 14 13 13 12 11 9 9 8 8 7 6 5 4 2 2 4 5 7 8 9 11 11 9 9 9
4 10 6 13 17 14 10 11 11 10 14 13 10 4 16 20 20 19 13 18 15 15 14 13 12 10 10 11 11 9 8 7 7 6 4 3 2 3 4 6 8 9 10 10 11 13 11 10 9
5 6 11 12 12 13 10 9 7 10 11 8 3 9 10 13 19 18 16 19 15 17 15 13 13 13 10 9 9 8 8 7 7 6 5 5 3 6 6 6 8 9 11 12 12 14 13 12 11
1 1 10 11 8 12 9 9 7 5 7 9 13 15 13 11 14 17 17 13 14 13 14 11 12 11 10 8 10 10 9 9 8 8 7 6 6 4 6 8 9 9 9 10 12 13 13 13 11
7 13 8 6 10 10 9 8 4 5 9 11 7 13 14 13 11 16 16 14 13 12 12 12 12 11 10 12 10 11 11 9 8 8 8 6 6 9 4 7 9 8 11 9 11 11 11 12 8
4 6 7 10 11 12 10 6 4 2 14 12 10 12 13 12 10 10 14 13 13 10 11 10 10 8 7 9 10 9 4 11 12 8 10 8 6 9 8 9 9 11 12 10 10 12 13 12 13
8 7 9 12 11 11 8 8 10 10 7 9 13 12 13 13 12 11 12 13 12 11 10 11 12 11 9 8 8 9 8 11 12 12 11 9 9 8 9 8 10 10 12 13 14 14 16 14 14
8 11 12 13 11 9 8 10 9 13 10 11 12 13 12 12 12 13 14 15 14 12 11 10 10 10 10 11 9 9 12 11 14 14 12 11 11 11 11 10 9 11 12 12 14 17 19 20 21
14 16 12 11 10 9 9 11 12 15 14 13 13 12 10 10 11 11 11 13 14 12 9 8 8 8 10 9 10 10 11 11 11 13 13 13 13 13 13 14 12 12 13 15 16 18 21 21 21
17 13 17 11 9 10 4 9 11 13 13 14 13 12 11 10 8 8 10 10 10 12 10 9 9 7 8 9 10 10 11 11 12 15 16 16 16 15 17 18 18 20 23 23 26 24 25 26 25
21 16 15 12 10 8 8 13 13 12 11 14 13 12 10 9 8 8 10 10 10 11 8 6 5 5 4 7 9 10 11 12 13 15 17 17 17 18 20 21 21 21 22 23 24 26 29 31 30
20 21 15 13 12 8 15 11 15 13 10 13 14 13 11 9 11 11 10 9 8 6 4 3 6 6 7 7 9 10 12 13 15 15 17 19 19 21 22 24 24 24 26 27 29 32 34 35 35
13 15 18 9 11 10 7 10 11 13 11 13 14 15 14 13 13 13 13 10 8 7 2 2 3 5 6 10 12 14 16 17 18 19 19 22 24 25 26 29 31 33 35 37 37 36 35 32 31
14 16 14 12 11 10 10 10 11 15 14 14 16 17 16 17 16 13 9 8 6 6 7 7 6 4 4 6 10 14 17 21 23 24 26 27 30 31 33 34 35 35 36 34 31 29 29 29 26
19 18 18 12 13 13 13 14 14 17 17 17 17 17 17 19 19 16 12 9 9 8 7 7 8 7 7 10 12 12 13 17 18 18 21 27 28 29 30 31 31 31 32 34 30 26 26 26 25
21 18 16 14 12 20 20 20 20 18 21 22 21 21 21 20 19 18 17 11 12 9 7 4 3 5 9 14 18 16 15 16 20 20 23 21 23 23 24 25 25 26 27 28 26 26 25 24 24
12 17 15 16 18 19 17 20 23 18 25 26 25 24 24 22 21 20 19 18 15 7 5 2 3 7 12 18 23 25 21 16 18 18 19 19 21 21 23 24 25 25 26 25 23 24 26 23 24
11 10 10 14 16 20 21 14 19 22 29 22 23 26 26 26 24 22 21 22 19 10 7 6 6 9 14 21 28 29 20 15 15 18 19 19 20 22 23 21 23 25 27 28 25 22 25 25 25
15 15 14 12 15 15 11 17 14 8 7 13 21 26 30 29 27 26 25 27 25 18 12 10 11 11 16 23 31 28 22 16 14 14 17 18 19 21 23 21 20 21 22 23 25 24 24 24 24
20 18 19 7 10 14 10 11 21 19 13 8 14 22 26 29 29 29 28 31 27 24 19 15 15 14 16 23 29 29 24 19 16 17 17 19 21 21 20 20 18 18 17 17 19 21 23 22 25
19 22 20 17 7 14 7 12 14 11 10 11 14 16 23 29 29 30 30 32 29 27 23 22 20 17 16 23 28 32 29 20 17 18 19 21 21 21 20 18 18 20 19 19 19 19 19 20 23
11 16 15 13 8 10 11 8 10 11 7 9 11 14 19 27 31 30 31 34 29 29 25 25 24 20 15 21 28 36 35 22 18 19 21 21 20 18 17 18 22 20 19 19 21 20 24 24 23
23 16 20 18 13 7 6 6 12 7 6 5 7 10 16 23 31 28 31 31 30 30 29 27 26 23 17 21 26 31 36 26 23 23 23 21 20 19 19 20 21 20 20 21 23 21 25 25 25
27 24 22 20 15 14 15 7 6 3 3 4 7 9 9 17 26 27 30 30 30 29 31 30 28 25 20 24 27 30 37 27 25 22 21 20 19 19 20 21 23 23 23 23 21 21 24 27 28
Wind_Direction
93 91 85 79 81 87 86 89 86 93 94 98 65 94 95 70 110 125 133 128 130 121 123 123 121 118 116 117 119 121 120 122 125 127 123 116 111 109 108 108 106 108 109 107 100 94 83 46 24
69 76 80 78 91 87 78 80 84 92 101 93 78 96 88 95 123 124 130 129 128 123 123 124 123 122 120 121 120 123 122 124 129 134 130 121 111 106 101 100 97 94 88 87 86 78 52 35 18
63 57 70 79 78 80 86 84 84 82 88 107 109 100 100 108 119 128 129 131 130 125 125 130 129 125 125 125 126 126 124 124 128 129 125 117 115 114 110 103 100 85 75 69 59 43 30 13 8
100 88 65 87 85 86 93 88 81 83 97 113 113 97 111 112 125 131 135 132 131 129 131 135 134 135 132 128 129 128 127 126 128 134 132 125 126 129 123 120 108 82 51 32 18 360 350 350 356
128 124 92 95 91 90 87 86 101 90 91 110 120 122 114 122 134 135 133 133 133 134 134 136 135 133 130 128 130 130 125 125 130 133 130 128 135 141 151 149 113 25 330 320 328 329 321 322 322
261 74 110 111 100 93 89 97 99 104 110 122 124 121 123 133 136 136 134 136 134 139 139 137 133 132 134 132 133 136 133 132 132 133 132 136 141 155 180 239 296 305 305 311 310 308 307 309 310
298 264 105 106 112 100 92 99 99 106 111 119 115 126 133 137 141 134 152 126 150 149 151 144 140 142 143 141 143 145 148 147 141 138 141 145 148 191 272 286 287 292 300 305 305 301 305 306 305
298 99 117 99 116 105 101 100 103 113 130 130 119 71 140 143 141 140 160 150 158 146 151 148 143 145 147 150 155 160 166 165 163 164 164 169 188 247 279 286 293 294 298 297 299 302 306 307 299
115 273 97 73 110 118 126 107 120 125 117 135 139 158 129 138 140 148 153 159 158 156 156 151 155 155 158 163 164 168 175 180 183 186 196 208 218 289 282 274 285 290 291 296 294 295 299 298 293
223 68 85 71 111 121 122 112 126 125 124 124 139 149 138 140 139 145 151 156 154 160 161 152 159 167 165 165 174 174 181 184 187 191 202 212 230 256 283 278 283 288 290 291 290 292 295 287 296
355 95 124 113 104 123 120 102 111 190 151 152 156 146 140 141 151 150 155 158 156 163 156 167 172 191 174 185 192 196 192 194 201 205 210 209 207 266 273 252 279 312 296 287 299 298 299 297 291
119 103 129 129 122 117 113 97 79 114 115 164 164 153 139 143 149 159 156 153 158 162 160 167 167 168 176 206 191 231 192 203 215 234 228 237 245 250 260 289 298 293 289 301 286 290 293 289 290
139 143 135 129 127 116 115 94 89 112 177 170 168 157 146 151 162 172 164 160 165 169 169 175 175 184 190 204 213 210 225 221 205 236 233 237 252 264 277 274 291 300 300 301 307 303 301 298 284
154 144 136 135 131 113 86 83 90 119 143 158 156 150 153 166 175 185 179 174 179 185 188 189 186 187 192 215 223 229 230 241 237 225 231 232 239 254 270 284 290 298 306 312 311 308 304 298 293
159 149 146 145 132 131 110 89 104 134 138 140 145 145 160 168 179 186 189 189 189 195 196 205 212 208 212 225 235 244 250 257 261 251 257 254 256 262 269 275 285 291 303 308 308 306 303 299 296
171 173 173 170 166 161 251 132 131 132 144 151 152 164 165 168 160 177 188 188 197 186 191 201 218 228 227 243 250 258 269 279 278 270 259 263 264 269 274 278 288 296 295 297 299 301 300 298 294
196 202 177 178 198 166 231 171 153 142 146 158 163 173 172 172 178 174 180 187 177 172 191 191 221 239 267 274 273 271 277 281 271 260 268 279 282 279 282 287 290 288 286 289 293 297 299 297 293
200 222 182 190 194 215 152 161 154 159 160 163 166 173 173 178 176 177 176 171 171 173 179 212 260 277 283 273 282 282 281 280 277 277 278 277 277 277 283 285 286 286 286 289 291 292 291 288 287
203 227 215 202 196 196 209 159 175 176 179 173 175 176 174 175 180 165 158 138 158 164 177 240 233 276 278 272 273 273 272 276 275 273 272 275 278 280 282 282 283 285 287 288 291 293 292 288 283
229 217 220 195 202 229 208 188 201 197 192 194 188 176 177 173 176 174 154 152 146 119 103 94 82 54 344 314 295 286 282 283 282 282 276 275 276 283 286 287 288 291 294 294 296 296 296 292 284
222 232 216 204 216 228 195 224 199 209 204 198 198 190 185 184 185 188 185 180 165 164 144 105 79 55 24 1 344 320 295 282 282 275 281 284 290 287 286 286 288 291 294 296 300 293 289 289 283
217 216 216 220 222 220 217 247 190 208 211 207 202 205 196 195 193 197 196 191 183 187 173 145 89 27 10 358 349 341 310 285 275 282 284 290 291 294 293 294 295 296 294 294 295 292 291 290 284
231 193 217 238 225 258 186 241 193 219 215 218 213 212 209 205 200 201 199 200 192 203 208 214 334 347 348 349 345 344 328 304 296 295 300 302 300 298 300 305 304 302 302 300 296 291 289 286 283
199 190 215 231 237 231 225 237 208 210 208 221 222 218 216 212 208 202 204 208 205 221 237 241 284 312 329 339 344 341 334 310 295 300 302 302 305 310 307 308 306 303 304 305 306 297 287 287 282
200 199 209 219 222 240 225 234 237 262 225 247 229 222 217 213 212 208 206 211 223 230 247 251 266 288 317 336 344 342 337 322 300 293 296 302 304 307 309 310 308 305 305 308 308 309 306 299 290
211 207 227 181 234 228 168 237 261 250 256 249 219 223 216 218 214 213 209 217 230 231 247 260 268 280 311 337 346 344 336 322 310 302 300 302 305 306 310 311 313 312 311 310 311 311 309 304 298
204 227 227 280 231 274 235 216 220 230 241 235 228 223 225 221 216 213 213 220 229 233 245 256 269 279 305 337 344 343 338 322 308 304 307 307 308 309 313 314 317 314 309 306 304 305 300 307 298
231 206 226 234 267 243 249 220 265 177 231 241 245 241 227 225 220 214 213 221 226 233 241 252 263 272 295 328 338 345 339 325 316 314 314 312 308 307 303 305 313 317 321 319 320 317 311 314 313
214 223 230 247 247 287 260 242 141 169 203 232 264 258 235 220 219 214 212 218 230 235 242 250 260 268 285 314 321 329 338 325 321 317 315 311 304 301 301 302 311 311 307 313 313 305 306 308 310
226 216 226 236 231 248 281 289 186 195 212 263 287 269 236 217 223 213 214 215 229 238 243 250 259 266 281 307 307 318 334 324 319 316 310 305 301 299 300 302 305 304 305 305 305 303 301 305 306